Home   Weather   Greeley   Past weeks

Flag for USA Past Weather in Greeley, Colorado, USA — Yesterday and Last 2 Weeks

Now
45 °F

Partly sunny.


Feels Like: 41 °F
Forecast: 39 / 53 °F
Wind: 7 mph from North

Location: Greeley / Weld

Current Time: Apr 27, 2017 at 9:20:30 am

Latest Report: Apr 27, 2017 at 8:56 am


Visibility: 10 mi

Pressure: 29.57 "Hg (24.86 "Hg at 1424m altitude)

Humidity: 76%

Dew Point: 38 °F

Location of GreeleyLocation

Past Weather in Greeley — Graph

°F

Greeley Temperature Yesterday

Maximum temperature yesterday: 61 °F (at 2:56 pm)
Minimum temperature yesterday: 30 °F (at 1:56 am)
Average temperature yesterday: 45 °F

High & Low Weather Summary for the Past Weeks

 TemperatureHumidityPressure
High82 °F (Apr 13, 3:56 pm)100% (Apr 14, 5:34 am)30.38 "Hg (Apr 14, 5:34 am)
Low30 °F (Apr 26, 1:56 am)11% (Apr 14, 4:56 pm)29.49 "Hg (Apr 25, 2:56 am)
Average52 °F59%29.91 "Hg
* Reported Apr 12 7:56 am — Apr 27 7:56 am, Greeley, Weather by CustomWeather, © 2017

Note: Actual official high and low records may vary slightly from our data, if they occured in-between our weather recording intervals... More about our weather records

Advertising

Greeley Weather History for the Previous 24 Hours

Scroll right to see more
 ConditionsComfort  
Time TempWeatherWind HumidityBarometerVisibility
7:56 am
Thu, Apr 27
41 °FOvercast.6 mph86%29.58 "Hg10 mi
6:56 am40 °FPartly sunny.7 mph89%29.57 "Hg10 mi
5:56 am39 °FClear.8 mph93%29.57 "Hg10 mi
4:56 am39 °FClear.5 mph93%29.58 "Hg10 mi
3:56 am40 °FPassing clouds.5 mph89%29.58 "Hg10 mi
2:56 am40 °FClear.3 mph89%29.59 "Hg10 mi
1:56 am43 °FPassing clouds.6 mph79%29.63 "Hg10 mi
11:56 pm
Wed, Apr 26
45 °FClear.8 mph74%29.68 "Hg10 mi
10:56 pm45 °FPassing clouds.8 mph76%29.71 "Hg10 mi
9:56 pm45 °FClear.8 mph76%29.74 "Hg10 mi
8:56 pm47 °FMostly cloudy.8 mph71%29.75 "Hg10 mi
7:56 pm48 °FClear.7 mph63%29.72 "Hg10 mi
7:19 pm50 °FLight rain. More clouds than sun.15 mph58%29.70 "Hg10 mi
6:56 pm55 °FOvercast.8 mph40%29.70 "Hg10 mi
5:56 pm55 °FPassing clouds.6 mph35%29.69 "Hg10 mi
4:56 pm57 °FScattered clouds.9 mph32%29.69 "Hg10 mi
3:56 pm61 °FSunny.10 mph26%29.68 "Hg10 mi
2:56 pm61 °FSunny.9 mph27%29.70 "Hg10 mi
1:56 pm56 °FSunny.No wind34%29.74 "Hg10 mi
12:56 pm57 °FSunny.7 mph37%29.77 "Hg10 mi
11:56 am52 °FSunny.6 mph45%29.81 "Hg10 mi
10:56 am49 °FSunny.6 mph48%29.84 "Hg10 mi
9:56 am43 °FSunny.3 mph58%29.88 "Hg10 mi
Weather by CustomWeather, © 2017

See weather overviewHow to use our weather pages